sat.trackr.live / text

‹ back to catalog

STARLINK-34158

NORAD 63996 · 2025-101C

PAYLOAD ACTIVE UNKNOWN

§ Identity

Operator
Country
US
Launch date
2025-05-14
Launch site
AFETR
Launch vehicle
Mass (kg)
RCS (m²)

Purposes: comms

External: N2YO · Heavens-Above · Gunter

§ Orbital elements

Epoch: 2026-05-25T02:30:08.133984Z

Period
94.27 min
Inclination
43.0007°
Eccentricity
0.0001743
Mean motion
15.27593573 rev/d
Perigee alt
481.8 km
Apogee alt
484.2 km
Semi-major
6,861.1 km
B*
6.7244e-4
RAAN
286.3010°
Arg perigee
266.2275°
Mean anomaly
93.8377°
Rev number
5,874

§ Raw data

STARLINK-341581 63996U 25101C   26145.10426081  .00018296  00000+0  67244-3 0  99932 63996  43.0007 286.3010 0001743 266.2275  93.8377 15.27593573 58742

JSON: /api/v1/satellites/63996 · /tle

For live sub-satellite position, see the globe view (requires WebGL).

§ Visibility from observer

Set your observer location to see the next 7 days of passes ≥ 10°. The values pass through the URL so the page stays shareable.

No JS? Fill the form by hand. The geolocation button needs JavaScript.